Temperature
2 2 2 2 2 1 1 3 4 5 5 5 4 2 1 -0 -1 -1 -2 -2 -1 -1 -1 -1 -0 -0 -0 0 0 0 0 0 0 0 0 -0 -0 -0 -0 -0 -0 -0 -0 -0
1 1 1 1 1 1 1 2 2 3 3 3 2 1 -0 -1 -2 -3 -3 -2 -2 -2 -2 -1 -1 -1 -1 -1 -1 -1 -1 -1 -1 -1 -1 -1 -1 -1 -1 -1 -1 -1 -1 -1
2 0 0 1 1 1 1 1 1 2 3 1 0 -0 -1 -2 -3 -3 -3 -3 -3 -3 -2 -2 -2 -2 -2 -2 -1 -1 -1 -1 -1 -1 -1 -1 -2 -2 -2 -2 -2 -2 -2 -2
0 0 1 3 -0 0 0 0 -0 0 0 0 -1 -2 -3 -3 -3 -4 -4 -4 -4 -4 -3 -3 -3 -3 -2 -2 -2 -2 -2 -2 -2 -2 -2 -2 -2 -2 -2 -2 -2 -2 -2 -2
-0 1 2 2 -1 -2 -1 -0 -1 -1 -1 -2 -3 -3 -3 -3 -4 -4 -4 -5 -4 -4 -4 -4 -3 -3 -3 -3 -3 -3 -3 -3 -3 -3 -3 -3 -3 -3 -3 -3 -3 -3 -3 -3
-1 1 2 2 -2 -3 -1 -0 -1 -2 -2 -3 -4 -1 -1 -4 -4 -5 -5 -5 -5 -5 -5 -4 -4 -4 -4 -4 -4 -4 -4 -4 -4 -4 -4 -4 -4 -4 -4 -4 -4 -4 -4 -4
-1 -0 1 -0 -4 -3 -0 1 -2 -3 -4 -4 -4 -3 -4 -5 -5 -6 -6 -6 -6 -6 -5 -5 -5 -5 -5 -5 -5 -5 -5 -5 -5 -5 -5 -5 -5 -5 -5 -5 -5 -5 -5 -4
-1 -1 0 -3 -4 -2 -1 -3 -4 -4 -5 -5 -6 -6 -6 -6 -6 -6 -7 -7 -6 -6 -6 -6 -6 -6 -6 -6 -6 -6 -6 -6 -5 -5 -5 -5 -5 -5 -6 -6 -6 -6 -6 -5
-1 -0 -2 -4 -4 -4 -4 -5 -5 -5 -5 -6 -6 -7 -7 -7 -7 -7 -7 -7 -7 -7 -7 -7 -7 -7 -7 -7 -7 -7 -7 -7 -6 -6 -6 -6 -6 -7 -7 -7 -7 -7 -7 -7
-4 -3 -4 -5 -5 -5 -5 -5 -5 -5 -6 -6 -7 -7 -8 -8 -8 -8 -8 -8 -8 -8 -8 -8 -8 -8 -8 -8 -8 -8 -8 -7 -7 -7 -7 -7 -7 -7 -8 -8 -8 -8 -8 -8
-4 -4 -5 -6 -6 -5 -5 -6 -6 -7 -7 -7 -8 -8 -8 -8 -9 -9 -9 -9 -9 -9 -9 -9 -9 -9 -9 -9 -9 -9 -9 -8 -8 -8 -8 -8 -8 -8 -8 -8 -8 -9 -8 -8
-3 -4 -4 -5 -5 -6 -6 -7 -7 -7 -7 -8 -8 -8 -9 -9 -9 -9 -9 -9 -10 -10 -10 -10 -10 -10 -10 -10 -10 -10 -9 -9 -9 -9 -9 -9 -9 -9 -9 -9 -9 -9 -9 -9
-6 -6 -6 -6 -7 -7 -7 -7 -8 -8 -8 -8 -9 -9 -9 -9 -10 -10 -10 -10 -10 -11 -11 -11 -11 -10 -10 -10 -10 -10 -10 -10 -10 -10 -10 -11 -11 -11 -10 -10 -10 -10 -10 -10
-7 -7 -8 -8 -8 -8 -8 -8 -8 -9 -9 -9 -9 -10 -10 -10 -10 -11 -11 -11 -11 -11 -11 -11 -11 -11 -11 -11 -11 -11 -11 -11 -11 -11 -11 -11 -11 -12 -12 -11 -11 -11 -11 -11
-8 -8 -8 -8 -8 -9 -9 -9 -9 -10 -10 -10 -10 -10 -11 -11 -11 -11 -11 -12 -12 -12 -12 -12 -12 -12 -12 -12 -12 -12 -12 -12 -12 -12 -12 -12 -12 -12 -12 -12 -12 -12 -12 -11
-9 -9 -9 -9 -9 -10 -10 -10 -10 -10 -11 -11 -11 -11 -11 -11 -12 -12 -12 -12 -12 -12 -12 -13 -12 -12 -12 -12 -12 -12 -12 -12 -12 -12 -12 -12 -13 -13 -13 -13 -13 -13 -13 -12
-10 -11 -10 -10 -10 -10 -10 -11 -11 -11 -11 -11 -12 -12 -12 -12 -12 -12 -13 -13 -13 -13 -13 -13 -13 -13 -13 -13 -13 -13 -13 -13 -13 -13 -13 -13 -13 -13 -13 -13 -13 -13 -13 -13
-10 -10 -10 -10 -10 -11 -11 -11 -11 -11 -12 -12 -12 -12 -13 -13 -13 -13 -13 -13 -13 -13 -13 -13 -13 -13 -13 -13 -13 -13 -13 -13 -14 -14 -14 -14 -14 -14 -14 -14 -14 -14 -14 -13
-11 -11 -11 -11 -11 -11 -11 -12 -12 -12 -12 -12 -13 -13 -13 -13 -13 -14 -14 -14 -14 -14 -14 -14 -14 -14 -14 -14 -14 -14 -14 -14 -14 -14 -14 -14 -14 -14 -14 -14 -14 -14 -14 -14
-11 -11 -11 -11 -12 -12 -12 -12 -12 -13 -13 -13 -13 -13 -13 -14 -14 -14 -14 -14 -14 -14 -14 -14 -14 -14 -14 -14 -14 -14 -15 -15 -15 -15 -15 -15 -15 -15 -15 -15 -15 -15 -14 -14
-12 -12 -12 -12 -12 -12 -12 -13 -13 -13 -13 -13 -14 -14 -14 -14 -14 -14 -14 -14 -14 -15 -15 -15 -15 -15 -15 -15 -15 -15 -15 -15 -15 -15 -15 -15 -15 -15 -15 -15 -15 -15 -15 -15
-12 -12 -12 -12 -12 -12 -13 -13 -13 -13 -13 -14 -14 -14 -14 -14 -14 -15 -15 -15 -15 -15 -15 -15 -15 -15 -15 -15 -15 -15 -15 -15 -15 -15 -15 -15 -16 -16 -16 -16 -16 -15 -15 -15
-12 -13 -13 -13 -13 -13 -13 -13 -14 -14 -14 -14 -14 -14 -15 -15 -15 -15 -15 -15 -15 -15 -15 -16 -16 -16 -16 -16 -16 -16 -16 -16 -16 -16 -16 -16 -16 -16 -16 -16 -16 -16 -16 -15
-13 -13 -13 -13 -13 -13 -13 -14 -14 -14 -14 -15 -15 -15 -15 -15 -15 -15 -15 -15 -15 -16 -16 -16 -16 -16 -16 -16 -16 -16 -16 -16 -16 -16 -16 -16 -16 -16 -16 -16 -16 -16 -16 -16
-13 -13 -13 -14 -14 -14 -14 -14 -14 -15 -15 -15 -15 -15 -15 -15 -15 -15 -15 -16 -16 -16 -16 -16 -16 -16 -16 -16 -16 -16 -16 -16 -16 -16 -16 -16 -16 -16 -16 -16 -16 -16 -16 -16
-13 -14 -14 -14 -14 -14 -15 -15 -15 -15 -15 -15 -15 -15 -15 -16 -16 -16 -16 -16 -16 -16 -16 -16 -16 -16 -16 -16 -16 -16 -16 -16 -16 -16 -16 -16 -16 -16 -16 -16 -16 -16 -16 -16
-14 -14 -14 -15 -15 -15 -15 -15 -15 -15 -15 -15 -15 -16 -16 -16 -16 -16 -16 -16 -16 -16 -16 -16 -16 -16 -16 -16 -16 -16 -16 -16 -16 -16 -16 -16 -16 -16 -16 -16 -16 -16 -16 -16
Wind_Speed
9 7 6 9 11 12 14 15 13 13 15 14 9 6 6 6 6 6 6 6 6 5 5 5 5 5 5 6 5 5 5 5 6 5 5 5 5 5 6 6 6 7 7 7
6 6 7 10 13 15 16 16 17 18 17 11 7 5 5 6 6 6 7 7 6 6 6 6 6 6 5 6 5 5 5 5 5 5 5 5 5 5 5 6 6 6 7 7
5 3 5 10 12 14 11 12 12 16 14 7 7 6 6 6 6 6 6 6 6 6 6 6 6 6 6 6 5 5 5 5 4 4 4 5 5 5 5 6 6 6 7 7
3 2 9 5 1 6 11 12 12 12 10 8 7 6 6 5 5 6 5 6 6 6 6 6 6 6 5 5 4 4 5 5 4 4 4 4 5 5 5 5 5 6 7 7
4 6 10 6 3 4 7 9 9 11 10 7 3 5 4 2 3 4 5 5 5 5 6 5 5 5 4 4 4 4 5 5 5 5 5 5 5 6 5 5 5 5 6 6
5 6 8 3 2 1 3 6 4 6 7 5 3 5 4 2 3 4 3 3 4 4 5 5 5 4 3 3 3 4 5 5 5 4 5 5 6 5 4 4 5 4 5 5
9 9 9 2 2 4 5 4 0 3 4 3 4 4 3 3 3 3 3 3 4 4 4 5 5 3 3 3 4 5 5 4 4 4 5 5 5 4 3 4 4 4 5 5
8 8 9 4 6 6 3 2 0 1 2 3 3 3 3 3 3 3 3 4 4 4 4 5 5 4 3 4 5 4 4 4 4 4 3 3 3 3 3 3 3 4 4 4
8 8 2 5 5 2 1 1 2 2 1 1 2 3 3 3 3 3 3 4 4 4 4 5 5 4 4 5 5 4 4 4 4 4 3 3 2 2 2 2 2 3 3 3
6 8 5 4 3 3 2 3 2 2 1 2 2 3 3 2 2 2 3 3 4 4 4 5 6 5 5 5 5 4 4 4 4 3 3 3 2 2 2 2 3 3 3 4
8 7 4 5 5 4 2 1 1 1 1 2 2 2 2 2 2 2 3 3 3 3 4 5 6 6 6 5 5 4 4 4 3 3 3 3 3 3 3 3 4 4 4 4
8 5 5 3 1 2 3 2 2 1 1 1 1 2 1 1 2 2 2 3 3 4 4 5 5 6 6 5 4 4 4 4 3 3 3 3 3 3 4 5 6 6 6 6
4 1 1 1 0 0 1 1 1 1 1 1 1 1 1 1 1 1 2 3 3 4 4 5 5 6 6 5 4 4 4 4 3 3 3 3 3 3 4 4 5 5 5 6
2 1 1 2 1 0 1 1 1 1 0 0 0 0 0 0 1 1 2 3 3 3 4 4 5 6 6 5 4 4 4 4 3 3 3 3 3 3 3 4 4 4 5 6
1 1 2 1 2 1 1 1 1 1 1 1 1 0 0 0 1 2 3 3 3 3 4 4 5 6 6 4 4 4 3 3 3 3 3 3 3 3 3 4 4 4 4 5
1 1 2 2 2 1 1 1 1 1 1 1 1 1 1 1 1 2 2 2 2 3 4 4 5 6 5 4 4 3 3 4 4 3 3 3 3 3 3 3 4 4 4 4
3 3 3 3 3 3 2 2 3 2 2 2 2 1 1 1 1 2 3 3 3 4 4 4 5 5 5 4 4 3 3 3 4 3 3 3 3 3 3 3 4 4 4 5
3 3 3 3 4 3 3 2 2 2 2 2 1 1 1 2 2 3 3 3 4 4 4 5 5 5 4 4 3 3 3 3 3 3 3 3 3 3 3 4 4 4 4 5
1 1 1 2 2 3 2 2 2 2 2 2 2 2 2 3 3 3 3 3 3 4 5 5 7 5 4 5 4 2 2 3 3 3 3 4 4 3 3 4 4 4 4 4
1 1 1 1 1 1 2 2 2 2 2 2 2 2 2 3 3 3 3 4 4 4 5 6 5 4 4 4 4 2 2 3 3 3 3 3 3 4 4 4 4 4 4 4
1 1 1 1 1 1 2 2 2 2 2 2 3 3 3 3 3 3 3 4 4 5 5 6 4 4 4 4 4 3 3 3 3 3 3 4 4 4 4 4 4 4 4 4
1 1 2 2 2 2 2 2 2 2 2 3 3 3 3 3 3 3 4 4 5 7 5 4 4 5 6 4 3 3 3 3 3 3 3 4 4 4 4 5 4 4 4 4
2 2 2 2 2 2 2 2 2 3 3 4 4 4 4 4 3 3 4 4 4 6 5 4 6 8 7 3 2 3 3 4 4 4 4 4 4 4 5 5 5 5 5 5
2 2 2 2 1 2 2 2 2 3 3 4 4 4 4 3 3 4 4 6 7 7 5 6 8 8 6 3 3 3 4 4 4 4 4 4 4 4 5 5 5 5 5 6
2 2 2 2 2 2 3 2 2 2 3 3 3 3 3 3 4 4 4 5 6 6 5 6 7 7 4 3 4 4 4 4 5 5 5 5 5 5 5 5 5 5 5 5
2 2 2 3 3 2 2 2 2 2 2 3 3 3 3 3 3 3 3 4 5 6 5 4 5 5 4 4 4 4 4 5 5 5 5 5 5 5 5 5 6 5 5 6
2 1 1 2 2 2 2 2 3 3 3 3 4 3 3 3 3 3 4 4 4 4 4 4 4 4 4 4 4 5 5 5 5 5 5 5 5 5 5 6 6 6 6 6
Wind_Direction
265 271 248 243 239 224 224 233 242 254 259 268 272 271 274 279 286 289 294 295 293 284 281 283 285 283 277 273 271 262 252 247 246 249 245 237 235 235 233 232 231 227 226 226
264 255 252 259 250 234 233 238 245 261 268 274 283 275 270 273 275 277 286 293 297 295 293 286 283 283 280 278 275 267 260 257 258 257 250 241 238 236 236 234 234 230 227 227
257 277 282 259 242 225 224 226 232 247 260 274 280 271 272 273 269 270 282 292 297 298 294 294 287 284 278 277 276 270 266 268 269 265 257 251 247 239 236 236 235 236 235 232
248 252 244 252 146 214 229 240 236 251 268 271 267 277 278 266 262 275 287 293 297 302 305 304 299 292 285 278 270 268 273 277 279 276 271 259 251 245 243 241 237 240 241 240
214 244 267 267 216 198 220 255 241 244 262 271 296 297 274 248 265 276 284 292 299 308 311 313 309 297 286 278 272 269 275 281 283 280 273 262 251 249 249 246 245 248 246 242
212 235 248 265 141 178 202 263 227 226 252 265 273 278 294 344 317 312 316 323 328 330 327 323 320 312 296 291 289 286 289 290 288 281 273 268 259 257 259 250 249 252 254 250
224 238 260 271 152 164 210 269 114 220 240 228 230 273 318 330 327 333 338 341 342 339 338 332 331 332 323 318 308 307 307 303 299 291 283 278 276 271 259 255 254 254 257 258
206 223 246 155 156 199 244 21 164 244 246 229 259 302 313 324 333 340 343 345 346 347 346 344 343 340 329 320 319 324 323 318 314 308 301 291 286 280 265 253 252 253 255 264
208 226 283 168 200 239 340 255 258 259 247 232 265 282 301 316 327 336 341 341 344 346 345 349 350 344 326 323 329 331 327 322 319 319 313 306 290 281 268 255 251 259 260 263
242 251 250 228 247 263 260 264 277 272 240 229 252 266 287 301 322 333 338 340 344 348 348 345 347 345 333 329 333 335 330 326 325 325 325 322 307 290 273 260 259 264 266 269
245 261 272 251 238 240 241 265 278 287 259 240 234 260 278 295 315 326 334 341 346 345 342 339 341 341 340 336 339 338 332 331 332 330 327 322 316 305 292 276 272 275 276 274
242 240 233 255 233 200 200 232 239 237 275 277 234 238 267 292 312 323 331 338 342 341 337 335 338 338 339 339 338 334 331 333 335 332 330 323 321 321 317 307 302 296 292 290
255 290 251 263 26 143 193 213 235 237 224 244 272 246 247 291 322 335 333 334 332 331 329 330 334 337 337 339 339 334 325 324 326 328 326 324 321 319 320 323 318 314 310 306
248 202 211 220 239 140 119 119 107 88 85 164 172 135 172 346 343 331 325 326 327 327 327 329 332 332 333 336 337 333 326 326 326 321 319 316 314 313 312 314 317 319 321 320
245 220 197 145 119 118 111 117 122 123 84 43 56 101 135 302 304 310 315 321 324 325 326 328 328 327 332 334 332 330 327 327 328 327 323 319 317 315 315 314 313 316 321 322
168 124 133 151 173 170 145 161 189 225 228 250 270 290 293 283 291 300 309 315 314 318 320 321 319 322 329 329 326 326 324 329 334 331 329 326 321 319 317 314 312 313 315 321
177 198 202 213 217 223 228 228 225 227 227 236 245 257 279 308 312 314 319 320 312 304 306 309 309 316 320 320 320 321 323 328 335 332 331 328 323 318 314 310 309 312 315 319
223 227 214 211 211 215 229 234 232 230 236 244 230 221 234 250 272 292 307 314 314 312 312 313 310 315 315 319 317 315 316 320 325 324 324 323 321 317 313 310 311 311 313 318
188 192 197 197 201 203 215 225 231 234 233 210 215 234 250 260 267 283 298 300 300 305 313 317 320 324 317 316 320 308 309 315 320 320 319 319 323 319 314 311 312 312 314 316
155 148 150 168 180 204 219 224 216 221 221 206 215 236 260 272 274 281 286 283 283 291 297 303 310 312 312 311 314 305 305 310 314 315 313 310 308 309 309 309 310 311 312 312
202 194 199 222 244 246 236 222 213 221 226 215 219 233 252 270 272 270 276 289 298 300 299 302 309 307 303 298 299 299 300 303 304 303 303 302 302 302 303 304 306 306 306 307
229 225 235 239 240 258 264 243 227 227 229 232 235 238 248 265 275 276 268 270 287 298 305 300 300 298 301 296 293 297 298 298 297 296 294 294 294 294 295 298 299 299 299 298
241 238 242 243 242 258 270 248 233 230 233 236 235 238 246 257 262 269 283 282 290 296 302 296 300 302 305 300 295 294 292 291 289 287 286 286 286 285 287 289 290 291 292 293
239 242 244 238 216 231 255 261 251 247 246 251 244 240 243 257 270 267 272 284 295 300 300 298 305 307 310 308 294 289 285 283 282 282 281 280 280 280 280 281 282 285 286 287
231 230 218 211 226 244 252 257 256 254 257 262 262 253 247 250 260 274 280 281 290 301 301 302 307 312 310 295 289 284 282 279 277 279 278 280 280 279 278 278 277 280 281 280
234 237 240 239 243 248 245 242 251 258 263 271 278 272 271 269 267 273 277 281 285 294 300 299 300 301 294 288 284 283 281 284 286 284 279 277 277 277 277 278 279 277 277 276
240 243 247 255 250 240 240 242 249 256 257 260 274 277 279 280 280 282 285 287 291 294 296 295 294 292 289 286 284 284 282 280 278 277 277 275 274 273 275 275 275 274 274 273
Height
1487 1486 1487 1487 1487 1490 1489 1481 1475 1464 1465 1463 1466 1470 1471 1471 1470 1469 1467 1465 1464 1462 1461 1460 1459 1458 1458 1457 1457 1457 1457 1457 1457 1458 1458 1459 1459 1460 1460 1461 1462 1462 1463 1464
1490 1487 1487 1486 1482 1482 1482 1479 1475 1470 1466 1464 1467 1468 1468 1467 1467 1465 1463 1462 1460 1459 1457 1456 1455 1454 1454 1453 1453 1453 1453 1453 1453 1453 1453 1453 1453 1454 1454 1455 1456 1456 1457 1457
1482 1487 1486 1476 1472 1474 1473 1471 1471 1466 1461 1463 1465 1464 1464 1464 1463 1462 1460 1459 1457 1455 1454 1452 1451 1450 1449 1449 1449 1449 1449 1448 1448 1448 1448 1448 1448 1448 1449 1449 1450 1450 1451 1451
1485 1487 1477 1461 1468 1468 1468 1466 1467 1464 1462 1462 1461 1462 1461 1460 1459 1458 1457 1455 1454 1452 1450 1449 1448 1447 1446 1445 1445 1444 1444 1443 1443 1443 1443 1443 1443 1443 1443 1443 1444 1444 1445 1445
1483 1476 1463 1461 1467 1468 1467 1462 1461 1462 1460 1461 1460 1459 1457 1457 1456 1456 1454 1453 1451 1450 1448 1446 1445 1444 1443 1442 1441 1440 1440 1439 1439 1439 1439 1438 1438 1438 1438 1438 1438 1438 1439 1439
1481 1473 1461 1454 1465 1466 1467 1460 1457 1458 1458 1458 1459 1456 1454 1455 1454 1453 1452 1450 1449 1447 1445 1443 1442 1441 1440 1438 1437 1436 1436 1435 1435 1434 1434 1434 1434 1433 1433 1433 1433 1433 1433 1433
1475 1470 1458 1460 1465 1466 1462 1453 1456 1455 1455 1456 1457 1456 1455 1453 1451 1450 1449 1447 1446 1444 1443 1441 1439 1438 1436 1435 1434 1433 1432 1431 1431 1430 1430 1429 1429 1428 1428 1428 1428 1428 1428 1428
1471 1467 1459 1461 1463 1460 1455 1455 1454 1454 1454 1454 1454 1453 1451 1450 1449 1448 1446 1445 1443 1442 1440 1438 1437 1435 1433 1432 1431 1429 1428 1427 1426 1426 1425 1425 1424 1424 1424 1423 1423 1423 1423 1423
1460 1455 1455 1456 1455 1455 1454 1454 1453 1453 1452 1452 1451 1450 1449 1448 1447 1445 1444 1442 1441 1439 1437 1436 1434 1433 1431 1429 1428 1426 1424 1423 1422 1421 1421 1420 1420 1420 1419 1419 1419 1418 1418 1418
1458 1453 1453 1453 1453 1452 1452 1452 1451 1451 1450 1450 1449 1448 1447 1445 1444 1443 1442 1440 1438 1437 1435 1433 1432 1430 1428 1427 1425 1423 1421 1420 1418 1417 1417 1417 1416 1416 1416 1416 1415 1415 1414 1414
1454 1451 1451 1449 1449 1449 1450 1449 1449 1448 1448 1447 1446 1445 1444 1443 1442 1441 1440 1438 1437 1435 1433 1431 1430 1428 1426 1424 1422 1420 1419 1417 1416 1415 1414 1413 1413 1413 1412 1412 1412 1412 1411 1411
1444 1445 1447 1446 1445 1446 1446 1446 1446 1445 1445 1444 1444 1443 1442 1441 1440 1439 1437 1436 1434 1433 1431 1429 1427 1426 1424 1422 1420 1418 1417 1415 1414 1413 1412 1411 1410 1409 1409 1409 1408 1408 1407 1407
1443 1443 1443 1443 1443 1443 1443 1443 1443 1443 1442 1442 1441 1441 1440 1439 1438 1437 1436 1434 1433 1431 1429 1427 1425 1424 1422 1420 1418 1417 1415 1413 1412 1411 1410 1408 1407 1406 1405 1405 1405 1404 1403 1403
1440 1441 1441 1440 1440 1441 1441 1441 1441 1440 1440 1440 1439 1438 1438 1437 1436 1435 1433 1432 1431 1429 1427 1425 1424 1422 1420 1418 1417 1415 1413 1412 1410 1409 1408 1406 1405 1404 1403 1402 1400 1399 1399 1399
1437 1438 1438 1438 1438 1438 1438 1438 1438 1438 1438 1437 1437 1436 1435 1435 1434 1433 1432 1430 1429 1427 1425 1424 1422 1420 1419 1417 1415 1413 1412 1410 1409 1407 1406 1405 1403 1402 1401 1400 1398 1397 1396 1395
1435 1435 1435 1436 1435 1435 1436 1436 1436 1435 1435 1435 1434 1434 1433 1432 1432 1431 1429 1428 1426 1425 1423 1421 1420 1418 1417 1415 1413 1411 1410 1408 1407 1405 1404 1403 1401 1400 1399 1398 1396 1395 1394 1392
1432 1432 1433 1433 1433 1433 1433 1433 1433 1433 1432 1432 1432 1431 1431 1430 1429 1428 1427 1426 1424 1423 1421 1419 1417 1416 1414 1413 1411 1409 1408 1406 1405 1404 1402 1401 1400 1398 1397 1396 1394 1393 1391 1390
1430 1430 1431 1431 1431 1431 1431 1431 1431 1430 1430 1430 1429 1429 1428 1427 1426 1425 1424 1423 1422 1420 1419 1417 1415 1414 1412 1411 1409 1407 1406 1405 1404 1402 1400 1399 1398 1396 1395 1393 1392 1390 1389 1388
1428 1428 1428 1429 1429 1429 1429 1428 1428 1428 1427 1427 1427 1426 1425 1425 1424 1423 1422 1420 1419 1417 1416 1414 1413 1411 1410 1408 1407 1406 1404 1403 1402 1400 1398 1397 1395 1394 1393 1391 1390 1388 1386 1385
1426 1426 1426 1426 1426 1426 1426 1426 1426 1425 1425 1425 1424 1424 1423 1422 1422 1420 1419 1418 1416 1415 1413 1412 1410 1409 1407 1406 1405 1404 1402 1401 1399 1398 1396 1395 1393 1391 1390 1389 1387 1385 1384 1382
1424 1424 1424 1424 1424 1424 1424 1424 1423 1423 1422 1422 1421 1421 1420 1419 1419 1418 1416 1415 1414 1413 1411 1410 1408 1407 1405 1404 1403 1402 1400 1399 1397 1395 1394 1392 1391 1389 1387 1386 1384 1382 1381 1379
1423 1423 1423 1422 1422 1422 1421 1421 1421 1420 1420 1419 1419 1418 1417 1417 1416 1415 1414 1413 1411 1410 1409 1407 1406 1405 1404 1402 1401 1399 1398 1396 1394 1393 1391 1390 1388 1386 1384 1383 1381 1379 1378 1377
1421 1421 1421 1421 1420 1419 1419 1419 1418 1417 1417 1416 1416 1415 1415 1414 1413 1412 1411 1410 1409 1407 1406 1405 1403 1402 1401 1400 1398 1396 1395 1393 1392 1390 1388 1387 1385 1384 1382 1380 1378 1377 1375 1373
1420 1419 1419 1418 1418 1417 1417 1416 1416 1415 1415 1414 1413 1413 1412 1411 1411 1410 1409 1408 1406 1405 1403 1402 1401 1400 1398 1397 1395 1393 1392 1390 1389 1387 1385 1384 1382 1381 1379 1377 1375 1374 1372 1370
1417 1417 1417 1416 1415 1415 1414 1414 1413 1412 1412 1411 1411 1410 1410 1409 1408 1407 1406 1405 1404 1402 1400 1399 1398 1397 1395 1394 1392 1390 1389 1387 1385 1384 1382 1380 1379 1377 1375 1374 1372 1370 1369 1367
1415 1415 1414 1413 1413 1412 1412 1411 1410 1409 1409 1408 1407 1407 1407 1406 1405 1404 1403 1402 1401 1399 1398 1396 1395 1394 1392 1390 1389 1387 1385 1384 1382 1380 1379 1377 1375 1374 1372 1370 1369 1367 1365 1364
1412 1412 1411 1411 1410 1410 1409 1408 1407 1407 1406 1405 1404 1404 1404 1403 1402 1401 1400 1399 1398 1396 1395 1394 1392 1391 1389 1387 1386 1384 1382 1380 1379 1377 1375 1374 1372 1370 1369 1367 1365 1364 1362 1360